DW8356 Weather Reports


Display with metric or nautical units.
time (UTC)temp
F
wind
direction
speed
MPH
gust
MPH
rain 1hr
in
rain 24hr
in
rain mn
in
humidity
%
barometer
mb
20260507124537 53 5 1.0 4.0 0.00 0.15 0.00 87 1020.5
20260507124024 53 321 1.0 4.0 0.00 0.15 0.00 88 1020.6
20260507123522 53 303 1.0 3.0 0.00 0.15 0.00 89 1020.5
20260507123036 53 295 0.0 4.0 0.00 0.15 0.00 89 1020.5
20260507122522 52 313 1.0 4.0 0.00 0.15 0.00 90 1020.5
20260507122022 52 0 0.0 2.0 0.00 0.15 0.00 90 1020.4
20260507121535 52 0 0.0 2.0 0.00 0.15 0.00 90 1020.3
20260507121022 52 330 0.0 2.0 0.00 0.15 0.00 90 1020.3
20260507120522 51 322 0.0 3.0 0.00 0.15 0.00 90 1020.2
20260507120039 51 314 1.0 3.0 0.00 0.15 0.00 90 1020.2
20260507115522 51 305 1.0 3.0 0.00 0.15 0.00 90 1020.1
20260507115022 51 298 1.0 3.0 0.00 0.15 0.00 90 1020.0
20260507114538 51 308 1.0 2.0 0.00 0.15 0.00 90 1019.9
20260507114021 51 299 0.0 2.0 0.00 0.15 0.00 90 1019.8
20260507113521 51 0 0.0 2.0 0.00 0.15 0.00 90 1019.9
20260507113038 51 0 0.0 2.0 0.00 0.15 0.00 90 1019.9
20260507112525 51 286 0.0 2.0 0.00 0.15 0.00 90 1019.7
20260507112023 51 241 0.0 3.0 0.00 0.15 0.00 90 1019.5
20260507111543 51 0 0.0 4.0 0.00 0.15 0.00 90 1019.4
20260507111024 51 298 1.0 4.0 0.00 0.15 0.00 90 1019.6
20260507110523 51 304 1.0 3.0 0.00 0.15 0.00 90 1019.5
20260507110037 51 0 1.0 3.0 0.00 0.15 0.00 89 1019.4
20260507105522 51 277 1.0 2.0 0.00 0.15 0.00 89 1019.3
20260507105022 52 0 0.0 2.0 0.00 0.15 0.00 89 1019.2
20260507104540 52 298 0.0 2.0 0.00 0.15 0.00 89 1019.1
20260507104023 52 0 0.0 2.0 0.00 0.15 0.00 89 1018.9
20260507103523 52 0 0.0 2.0 0.00 0.15 0.00 89 1018.9
20260507103041 52 307 0.0 2.0 0.00 0.15 0.00 89 1018.8
20260507102522 52 0 0.0 2.0 0.00 0.15 0.00 89 1018.7
20260507102023 52 0 0.0 2.0 0.00 0.15 0.00 89 1018.7
20260507101546 52 0 0.0 2.0 0.00 0.15 0.00 89 1018.6
20260507101022 52 0 0.0 2.0 0.00 0.15 0.00 89 1018.5
20260507100523 52 0 0.0 2.0 0.00 0.15 0.00 88 1018.4
20260507100042 52 316 0.0 2.0 0.00 0.15 0.00 88 1018.4
20260507095522 52 0 0.0 3.0 0.00 0.15 0.00 88 1018.4
20260507095024 52 0 1.0 3.0 0.00 0.15 0.00 88 1018.4
20260507094544 52 26 1.0 3.0 0.00 0.15 0.00 88 1018.2
20260507094022 52 5 1.0 3.0 0.00 0.15 0.00 88 1018.3
20260507093522 52 346 1.0 3.0 0.00 0.15 0.00 88 1018.2
20260507093042 53 360 1.0 3.0 0.00 0.15 0.00 87 1018.2
20260507092521 53 360 1.0 3.0 0.00 0.15 0.00 87 1018.2
20260507092022 53 30 1.0 2.0 0.00 0.15 0.00 87 1018.1
20260507091541 53 0 0.0 3.0 0.00 0.15 0.00 87 1018.2
20260507091023 53 344 1.0 3.0 0.00 0.15 0.00 87 1018.1
20260507090525 53 340 1.0 3.0 0.00 0.15 0.00 87 1018.1
20260507090038 53 321 1.0 3.0 0.00 0.15 0.00 86 1018.2
20260507085522 53 335 0.0 2.0 0.00 0.15 0.00 86 1018.1
20260507085022 53 13 1.0 3.0 0.00 0.15 0.00 86 1018.2
20260507084539 54 15 1.0 3.0 0.00 0.15 0.00 85 1018.1
20260507084021 54 23 1.0 3.0 0.00 0.15 0.00 85 1018.1
20260507083524 54 0 0.0 3.0 0.00 0.15 0.00 85 1018.2
20260507083039 54 36 0.0 3.0 0.00 0.15 0.00 85 1018.1
20260507082524 54 17 1.0 3.0 0.00 0.15 0.00 85 1018.1
20260507082021 54 40 1.0 4.0 0.00 0.15 0.00 84 1018.1
20260507081539 54 360 1.0 4.0 0.00 0.15 0.00 84 1018.0
20260507081023 54 20 1.0 5.0 0.00 0.15 0.00 84 1018.1
20260507080520 54 24 2.0 8.0 0.00 0.15 0.00 84 1018.0
20260507080044 54 345 2.0 8.0 0.00 0.15 0.00 84 1017.8
20260507075522 55 5 2.0 8.0 0.00 0.15 0.00 84 1017.8
20260507075024 55 5 2.0 7.0 0.00 0.15 0.00 84 1017.7
20260507074540 55 16 3.0 8.0 0.00 0.15 0.00 84 1017.7
20260507074021 55 36 3.0 8.0 0.00 0.15 0.00 84 1017.7
20260507073522 55 15 3.0 7.0 0.00 0.15 0.00 84 1017.7
20260507073039 55 33 3.0 7.0 0.00 0.15 0.00 84 1017.8
20260507072522 55 42 2.0 8.0 0.00 0.15 0.00 84 1017.8
20260507072021 55 46 3.0 8.0 0.00 0.15 0.00 84 1017.8
20260507071539 55 23 2.0 5.0 0.00 0.15 0.00 83 1017.9
20260507071021 55 15 2.0 7.0 0.00 0.15 0.00 83 1017.9
20260507070523 55 39 2.0 7.0 0.00 0.15 0.00 83 1017.9
20260507070038 55 55 2.0 7.0 0.00 0.15 0.00 83 1017.8
20260507065521 55 360 2.0 7.0 0.00 0.15 0.00 83 1017.9
20260507065021 55 30 1.0 8.0 0.00 0.15 0.00 83 1018.0
20260507064538 55 64 2.0 8.0 0.00 0.15 0.00 83 1017.9
20260507064018 55 75 2.0 5.0 0.00 0.15 0.00 82 1017.6
20260507063521 55 34 2.0 7.0 0.00 0.15 0.00 82 1017.7
20260507063045 56 55 1.0 7.0 0.00 0.15 0.00 82 1017.7
20260507062519 56 157 2.0 6.0 0.00 0.15 0.00 82 1017.4
20260507062019 56 66 2.0 9.0 0.00 0.15 0.00 82 1017.4
20260507061535 56 36 1.0 9.0 0.00 0.15 0.00 82 1017.4
20260507061019 56 54 3.0 8.0 0.00 0.15 0.00 83 1017.5
20260507060519 56 102 2.0 7.0 0.00 0.15 0.00 82 1017.4
20260507060050 56 76 2.0 8.0 0.00 0.15 0.00 82 1017.2
20260507055525 56 100 3.0 8.0 0.00 0.15 0.00 82 1017.2
20260507055021 56 55 3.0 7.0 0.00 0.15 0.00 82 1017.1
20260507054546 56 0 2.0 7.0 0.00 0.15 0.00 82 1017.2
20260507054022 57 92 1.0 9.0 0.00 0.15 0.00 81 1017.2
20260507053522 57 94 2.0 9.0 0.00 0.15 0.00 81 1017.3
20260507053041 57 109 4.0 9.0 0.00 0.15 0.00 81 1017.2
20260507052521 57 47 1.0 8.0 0.00 0.15 0.00 80 1017.2
20260507052022 57 59 3.0 8.0 0.00 0.15 0.00 80 1017.3
20260507051538 57 115 3.0 8.0 0.00 0.15 0.00 80 1017.2
20260507051020 57 108 3.0 8.0 0.00 0.15 0.00 80 1017.3
20260507050522 57 59 3.0 7.0 0.00 0.15 0.00 79 1017.4
20260507050038 58 95 1.0 4.0 0.00 0.15 0.00 79 1017.4
20260507045528 58 69 1.0 10.0 0.00 0.15 0.15 79 1017.4
20260507045018 58 344 2.0 10.0 0.00 0.15 0.15 79 1017.3
20260507044548 58 92 3.0 9.0 0.00 0.15 0.15 79 1017.4
20260507044021 58 349 1.0 5.0 0.00 0.15 0.15 79 1017.4
20260507043521 58 30 2.0 7.0 0.00 0.15 0.15 79 1017.4
20260507043038 58 11 3.0 7.0 0.00 0.15 0.15 79 1017.4
20260507042522 58 17 3.0 7.0 0.00 0.15 0.15 78 1017.6
20260507042021 58 92 1.0 7.0 0.00 0.15 0.15 78 1017.7
20260507041538 58 51 3.0 10.0 0.00 0.15 0.15 78 1017.8
20260507041021 58 71 5.0 10.0 0.00 0.15 0.15 77 1017.9
20260507040522 58 30 2.0 11.0 0.00 0.15 0.15 76 1017.9
20260507040039 58 28 5.0 11.0 0.00 0.15 0.15 75 1017.9
20260507035522 58 35 4.0 10.0 0.00 0.15 0.15 75 1017.8
20260507035024 59 46 3.0 8.0 0.00 0.15 0.15 75 1017.8
20260507034541 59 10 2.0 9.0 0.00 0.15 0.15 74 1017.9
20260507034021 59 61 4.0 10.0 0.00 0.15 0.15 74 1017.9
20260507033519 59 48 4.0 13.0 0.00 0.15 0.15 74 1017.8
20260507033035 59 360 6.0 13.0 0.00 0.15 0.15 74 1017.7
20260507032520 59 360 5.0 16.0 0.00 0.15 0.15 74 1017.7
20260507032018 59 90 6.0 16.0 0.00 0.15 0.15 74 1017.7
20260507031539 59 338 5.0 12.0 0.00 0.15 0.15 74 1017.6
20260507031022 59 24 6.0 12.0 0.00 0.15 0.15 74 1017.6
20260507030523 59 58 5.0 11.0 0.00 0.15 0.15 75 1017.4
20260507030038 59 337 4.0 9.0 0.00 0.15 0.15 77 1017.2
20260507025521 59 24 2.0 9.0 0.00 0.15 0.15 77 1017.2
20260507025021 59 24 4.0 8.0 0.00 0.15 0.15 77 1017.1
20260507024542 59 42 3.0 8.0 0.00 0.15 0.15 77 1017.0
20260507024021 59 16 2.0 9.0 0.00 0.15 0.15 77 1016.9
20260507023525 59 27 4.0 10.0 0.00 0.15 0.15 77 1016.8
20260507023038 59 9 4.0 10.0 0.00 0.15 0.15 77 1016.8
20260507022523 59 311 4.0 10.0 0.00 0.15 0.15 77 1016.7
20260507022021 59 48 3.0 8.0 0.00 0.15 0.15 77 1016.6
20260507021537 59 19 2.0 9.0 0.00 0.15 0.15 77 1016.5
20260507021020 59 98 4.0 9.0 0.00 0.15 0.15 77 1016.4
20260507020518 59 84 3.0 12.0 0.00 0.15 0.15 77 1016.3
20260507020042 59 360 4.0 12.0 0.00 0.15 0.15 77 1016.2
20260507015524 59 5 3.0 10.0 0.00 0.15 0.15 77 1016.1
20260507015019 59 28 4.0 12.0 0.00 0.15 0.15 77 1015.9
20260507014538 59 30 4.0 12.0 0.00 0.15 0.15 77 1015.7
20260507014037 59 37 3.0 9.0 0.00 0.15 0.15 78 1015.7
20260507013520 59 32 4.0 9.0 0.00 0.15 0.15 77 1015.6
20260507013045 59 80 3.0 10.0 0.00 0.15 0.15 78 1015.5
20260507012521 59 109 4.0 11.0 0.00 0.15 0.15 77 1015.4
20260507012022 60 26 5.0 11.0 0.00 0.15 0.15 77 1015.4
20260507011541 60 32 3.0 9.0 0.00 0.15 0.15 77 1015.2
20260507011021 60 55 5.0 12.0 0.00 0.15 0.15 77 1015.2
20260507010521 60 101 6.0 12.0 0.00 0.15 0.15 77 1015.1
20260507010043 60 51 4.0 9.0 0.00 0.15 0.15 77 1015.2
20260507005522 60 40 2.0 8.0 0.00 0.15 0.15 77 1015.2
20260507005019 60 64 3.0 8.0 0.00 0.15 0.15 77 1015.1
20260507004538 60 25 4.0 8.0 0.00 0.15 0.15 76 1014.9
20260507004019 60 98 3.0 10.0 0.00 0.15 0.15 76 1015.0
20260507003519 60 90 4.0 12.0 0.00 0.15 0.15 76 1014.9
20260507003033 60 350 5.0 12.0 0.00 0.15 0.15 76 1014.8
20260507002521 60 78 4.0 10.0 0.00 0.15 0.15 76 1014.7
20260507002021 60 54 3.0 11.0 0.00 0.15 0.15 76 1014.6
20260507001538 60 11 4.0 11.0 0.00 0.15 0.15 75 1014.6
20260507001018 60 79 4.0 11.0 0.00 0.15 0.15 75 1014.5
20260507000519 60 18 4.0 9.0 0.00 0.15 0.15 75 1014.6
20260507000040 60 39 5.0 9.0 0.00 0.15 0.15 76 1014.5
20260506235519 60 322 3.0 11.0 0.00 0.15 0.15 76 1014.5
20260506235019 60 78 3.0 12.0 0.00 0.15 0.15 75 1014.3
20260506234541 60 28 5.0 12.0 0.00 0.15 0.15 75 1014.4
20260506234019 61 22 4.0 9.0 0.00 0.15 0.15 75 1014.5
20260506233520 61 5 4.0 10.0 0.00 0.15 0.15 74 1014.5
20260506233038 61 28 4.0 10.0 0.00 0.15 0.15 74 1014.3
20260506232518 61 11 3.0 12.0 0.00 0.15 0.15 74 1014.2
20260506232018 61 70 3.0 12.0 0.00 0.15 0.15 74 1013.9
20260506231540 61 29 4.0 11.0 0.00 0.15 0.15 74 1013.9
20260506231019 61 38 4.0 9.0 0.00 0.15 0.15 74 1014.0
20260506230521 61 62 3.0 10.0 0.00 0.15 0.15 74 1013.9
20260506230035 61 27 3.0 12.0 0.00 0.15 0.15 74 1014.1
20260506225518 61 47 4.0 12.0 0.00 0.15 0.15 74 1013.9
20260506225019 61 15 4.0 10.0 0.00 0.15 0.15 74 1014.0
20260506224554 61 360 5.0 12.0 0.00 0.15 0.15 74 1014.2
20260506224018 61 344 5.0 12.0 0.00 0.15 0.15 74 1014.1
20260506223519 60 32 4.0 10.0 0.00 0.15 0.15 74 1013.9
20260506223038 60 349 4.0 10.0 0.00 0.15 0.15 74 1013.8
20260506222522 60 63 4.0 10.0 0.00 0.15 0.15 74 1014.1
20260506222018 60 84 5.0 10.0 0.00 0.15 0.15 74 1014.1
20260506221539 61 346 2.0 8.0 0.00 0.15 0.15 74 1014.3
20260506221021 60 342 3.0 10.0 0.00 0.15 0.15 74 1013.8
20260506220521 60 59 3.0 12.0 0.00 0.15 0.15 73 1013.7
20260506220039 60 53 4.0 12.0 0.00 0.15 0.15 73 1013.7
20260506215518 60 15 4.0 12.0 0.00 0.15 0.15 73 1013.6
20260506215018 60 314 4.0 9.0 0.00 0.15 0.15 73 1013.7
20260506214542 61 25 4.0 9.0 0.00 0.15 0.15 73 1013.5
20260506214020 60 352 4.0 8.0 0.00 0.15 0.15 73 1013.7
20260506213519 60 42 2.0 9.0 0.00 0.15 0.15 74 1013.8
20260506213041 60 29 4.0 9.0 0.00 0.15 0.15 73 1014.0
20260506212518 60 11 5.0 10.0 0.00 0.15 0.15 73 1013.9
20260506212019 60 316 4.0 10.0 0.00 0.15 0.15 73 1013.9
20260506211539 60 27 4.0 10.0 0.00 0.15 0.15 73 1013.9
20260506211019 60 35 3.0 8.0 0.00 0.15 0.15 74 1013.9
20260506210519 60 42 3.0 8.0 0.00 0.15 0.15 73 1013.9
20260506210040 60 67 2.0 9.0 0.00 0.15 0.15 73 1014.0
20260506205518 60 343 3.0 9.0 0.00 0.15 0.15 73 1014.0
20260506205023 60 5 2.0 9.0 0.00 0.15 0.15 73 1013.9
20260506204538 59 57 4.0 9.0 0.00 0.15 0.15 74 1014.0
20260506204021 60 21 4.0 8.0 0.00 0.15 0.15 73 1014.2
20260506203518 59 346 3.0 8.0 0.00 0.15 0.15 74 1014.2
20260506203040 59 33 4.0 8.0 0.00 0.15 0.15 74 1014.3
20260506202518 59 0 1.0 12.0 0.00 0.15 0.15 74 1014.4
20260506202021 59 53 4.0 12.0 0.00 0.15 0.15 73 1014.5
20260506201538 60 36 3.0 9.0 0.00 0.15 0.15 75 1014.3
20260506201019 60 310 4.0 9.0 0.00 0.15 0.15 74 1014.3
20260506200522 59 309 3.0 8.0 0.00 0.15 0.15 75 1014.5
20260506200037 59 51 3.0 8.0 0.00 0.15 0.15 75 1014.3
20260506195518 59 32 2.0 7.0 0.00 0.15 0.15 76 1014.6
20260506195022 58 0 2.0 6.0 0.00 0.15 0.15 76 1014.9
20260506194543 58 312 2.0 4.0 0.00 0.15 0.15 77 1014.8
20260506194019 58 61 0.0 7.0 0.00 0.15 0.15 77 1015.0
20260506193523 58 313 3.0 7.0 0.00 0.15 0.15 78 1014.9
20260506193034 58 5 2.0 5.0 0.00 0.15 0.15 78 1015.0
20260506192524 57 328 2.0 6.0 0.00 0.15 0.15 78 1014.8
20260506192023 57 37 1.0 6.0 0.00 0.15 0.15 78 1014.8
20260506191539 57 360 1.0 8.0 0.00 0.15 0.15 78 1014.9
20260506191023 57 329 2.0 8.0 0.00 0.15 0.15 78 1015.2
20260506190527 57 327 2.0 7.0 0.00 0.15 0.15 77 1015.2
20260506190039 57 9 3.0 7.0 0.00 0.15 0.15 78 1015.1
20260506185522 57 67 3.0 8.0 0.00 0.15 0.15 78 1014.8
20260506185023 57 0 2.0 11.0 0.00 0.15 0.15 79 1014.8
20260506184537 57 23 4.0 11.0 0.00 0.15 0.15 80 1014.5
20260506184023 56 35 3.0 10.0 0.00 0.15 0.15 80 1014.2
20260506183524 56 336 4.0 12.0 0.00 0.15 0.15 80 1014.0
20260506183039 56 5 5.0 12.0 0.00 0.15 0.15 80 1013.7
20260506182522 56 45 6.0 13.0 0.00 0.15 0.15 80 1013.6
20260506182022 56 347 7.0 13.0 0.00 0.15 0.15 81 1013.7
20260506181544 56 13 5.0 13.0 0.00 0.15 0.15 81 1013.4
20260506181023 56 53 5.0 13.0 0.00 0.15 0.15 82 1013.3
20260506180524 55 344 4.0 11.0 0.00 0.15 0.15 83 1013.6
20260506180043 55 53 6.0 11.0 0.00 0.15 0.15 83 1014.0
20260506175523 55 17 3.0 10.0 0.00 0.15 0.15 84 1014.1
20260506175022 54 12 4.0 10.0 0.00 0.15 0.15 84 1014.3
20260506174539 54 50 4.0 15.0 0.00 0.15 0.15 84 1014.3
20260506174022 54 86 4.0 15.0 0.00 0.15 0.15 84 1014.5
20260506173523 54 352 5.0 15.0 0.00 0.15 0.15 85 1014.1
20260506173041 54 54 7.0 15.0 0.00 0.15 0.15 85 1013.9
20260506172522 54 59 4.0 15.0 0.00 0.15 0.15 86 1014.5
20260506172023 53 24 4.0 15.0 0.00 0.15 0.15 87 1014.2
20260506171551 53 38 6.0 15.0 0.00 0.15 0.15 87 1014.4
20260506171023 53 35 5.0 11.0 0.00 0.15 0.15 87 1014.5
20260506170522 53 352 5.0 13.0 0.00 0.15 0.15 87 1014.3
20260506170039 53 311 6.0 13.0 0.00 0.15 0.15 87 1014.5
20260506165523 54 5 4.0 15.0 0.00 0.15 0.15 87 1014.7
20260506165023 54 25 4.0 15.0 0.00 0.15 0.15 87 1014.9
20260506164540 53 329 3.0 9.0 0.00 0.15 0.15 87 1015.2
20260506164022 53 63 4.0 9.0 0.06 0.15 0.15 87 1015.5
20260506163522 53 5 3.0 8.0 0.13 0.15 0.15 87 1015.6
20260506163106 53 32 3.0 9.0 0.15 0.15 0.15 87 1015.7
20260506162520 53 15 3.0 10.0 0.15 0.15 0.15 87 1015.8
20260506162020 53 360 4.0 10.0 0.15 0.15 0.15 87 1015.5
20260506161538 53 24 3.0 10.0 0.15 0.15 0.15 87 1015.1
20260506161020 53 119 4.0 14.0 0.15 0.15 0.15 88 1014.9
20260506160520 53 344 5.0 14.0 0.15 0.15 0.15 88 1014.0
20260506160039 53 34 6.0 13.0 0.15 0.15 0.15 87 1013.5
20260506155520 53 15 5.0 13.0 0.15 0.15 0.15 88 1014.0
20260506155023 53 352 3.0 9.0 0.15 0.15 0.15 86 1014.3
20260506154539 53 72 5.0 9.0 0.14 0.14 0.14 85 1014.5
20260506154021 53 352 5.0 9.0 0.07 0.07 0.07 83 1015.5
20260506153521 54 10 2.0 9.0 0.02 0.02 0.02 81 1016.6
20260506153034 54 294 4.0 9.0 0.00 0.00 0.00 80 1017.0
20260506152521 54 223 1.0 10.0 0.00 0.00 0.00 79 1016.4
20260506152021 54 352 3.0 10.0 0.00 0.00 0.00 78 1016.1
20260506151537 54 263 3.0 8.0 0.00 0.00 0.00 78 1015.2
20260506151024 54 317 2.0 11.0 0.00 0.00 0.00 78 1015.4
20260506150520 54 327 3.0 11.0 0.00 0.00 0.00 78 1014.5
20260506150039 54 37 5.0 11.0 0.00 0.00 0.00 78 1014.5
20260506145522 54 40 3.0 9.0 0.00 0.00 0.00 78 1015.2
20260506145023 54 315 4.0 12.0 0.00 0.00 0.00 78 1014.9
20260506144546 54 348 6.0 12.0 0.00 0.00 0.00 78 1014.6
20260506144020 54 62 4.0 11.0 0.00 0.00 0.00 78 1015.1
20260506143521 54 32 5.0 10.0 0.00 0.00 0.00 78 1015.3
20260506143038 54 46 5.0 10.0 0.00 0.00 0.00 78 1015.2
20260506142520 54 328 3.0 11.0 0.00 0.00 0.00 79 1015.1
20260506142018 54 338 3.0 11.0 0.00 0.00 0.00 79 1014.6
20260506141534 54 62 5.0 15.0 0.00 0.00 0.00 79 1014.3
20260506141018 54 67 7.0 15.0 0.00 0.00 0.00 79 1014.3
20260506140525 54 24 6.0 13.0 0.00 0.00 0.00 79 1014.3
20260506140037 54 305 6.0 13.0 0.00 0.00 0.00 79 1014.2
20260506135518 53 28 4.0 12.0 0.00 0.00 0.00 80 1014.1
20260506135018 53 63 4.0 11.0 0.00 0.00 0.00 81 1014.0
20260506134539 53 23 5.0 12.0 0.00 0.00 0.00 81 1013.8
20260506134020 53 323 4.0 14.0 0.00 0.00 0.00 81 1013.8
20260506133518 53 51 5.0 14.0 0.00 0.00 0.00 82 1013.8
20260506133045 53 10 4.0 11.0 0.00 0.00 0.00 82 1013.7
20260506132520 53 340 4.0 11.0 0.00 0.00 0.00 83 1013.7
20260506132020 53 15 5.0 13.0 0.00 0.00 0.00 82 1013.5
20260506131538 53 340 5.0 13.0 0.00 0.00 0.00 82 1013.3
20260506131020 53 352 6.0 12.0 0.00 0.00 0.00 82 1013.5
20260506130520 53 5 5.0 11.0 0.00 0.00 0.00 81 1013.4
20260506130037 53 315 5.0 11.0 0.00 0.00 0.00 81 1013.5
20260506125517 53 11 4.0 10.0 0.00 0.00 0.00 81 1013.4
20260506125018 53 10 3.0 13.0 0.00 0.00 0.00 81 1013.4